星链-11634 (STARLINK-11634)

导读

STARLINK-11634是美国于2025年4月28日发射的星链卫星,隶属于SpaceX公司的星链项目。星链项目旨在构建全球卫星互联网星座,为全球偏远地区、海洋空域等提供高速低延迟的网络接入服务。该卫星入轨后将与其他星链卫星协同,进一步拓展星链星座的覆盖范围与服务能力,推进全球网络互联布局。

Basic Information
目录编号:
63673
目录名称:
STARLINK-11634
国际标识:
2025-085K
轨道中心:
EARTH
卫星名称:
星链-11634
卫星全名:
星链-11634 (STARLINK-11634)
卫星状态:
在轨 (已飞行495 天)
发射日期:
2025-04-28 UTC
国别 :
美国 (US)
星等 :
--
Orbit Information
数据来源 国际轨道数据
星历时间: 2026-09-05T11:05:42+0800
8小时前
查看轨道信息
半长轴: 6734.561km
偏心率: 0.0001472
轨道倾角: 43.000°
近地点辐角 260.247°
升交点赤经 276.755°
平近点角 99.824°
近地点: 355.432km
远地点: 357.416km
周期: 91.669分钟
每日圈数: 15.708652
Detailed Information
固有亮度:
5
最大亮度:
2.5
卫星平台:
Starlink V1.0
覆盖范围:
全球
运营商:
太空探索技术公司
运营商所在国:
美国
制造商(研发单位):
太空探索技术公司
制造商所在国:
美国
使用方式:
暂无
Satellite Introduction
Starlink 计划是 SpaceX 推出的全球卫星互联网项目,通过发射低轨道卫星,为全球尤其是偏远地区提供高速、低延迟的互联网服务。自 2019 年起,Starlink 已部署数千颗卫星,旨在缩小全球数字鸿沟,推动互联网普及。该项目还为军事、航空等行业提供通信支持,带来广泛经济效益。
2D Orbit Map
3D Orbit Map
Orbit Altitude Analysis Chart
Orbit Inclination Analysis Chart
Orbit Comprehensive Analysis Chart
View Comprehensive Chart
Conjunction Data List
Event ID Objects TCA Miss Dist (km) Collision Risk Probability Collision Risk Index (CRI) Action
CDM_260907-200606-367306-580321
2026-09-07T
20:06:11+0000
2.880 km
极远距离
1.373491E-6 低风险 0.38